owner,sensor,date,latitude,longitude,vertical_datum,wind_speed,wind_to_direction,wind_speed_of_gust,qcFlag 
DISL,ioos:station:DISL:DISL:1,2010-07-01T00:00:00Z,30.2513,-88.0778,9.68,2.1,150.9,-9999.0,'1111122,1111122,1111122' 
DISL,ioos:station:DISL:DISL:1,2010-07-01T00:30:00Z,30.2513,-88.0778,9.68,1.78,161.0,-9999.0,'1111122,1111122,1111122' 
DISL,ioos:station:DISL:DISL:1,2010-07-01T01:00:00Z,30.2513,-88.0778,9.68,0.99,109.7,-9999.0,'1111122,1111122,1111122' 
DISL,ioos:station:DISL:DISL:1,2010-07-01T01:30:00Z,30.2513,-88.0778,9.68,2.37,26.78,-9999.0,'1111122,1111122,1111122' 
DISL,ioos:station:DISL:DISL:1,2010-07-01T02:00:00Z,30.2513,-88.0778,9.68,2.43,16.41,-9999.0,'1111122,1111122,1111122' 
DISL,ioos:station:DISL:DISL:1,2010-07-01T02:30:00Z,30.2513,-88.0778,9.68,1.59,55.07,-9999.0,'1111122,1111122,1111122' 
DISL,ioos:station:DISL:DISL:1,2010-07-01T03:00:00Z,30.2513,-88.0778,9.68,1.9,46.82,-9999.0,'1111122,1111122,1111122' 
DISL,ioos:station:DISL:DISL:1,2010-07-01T03:30:00Z,30.2513,-88.0778,9.68,2.36,43.03,-9999.0,'1111122,1111122,1111122' 
DISL,ioos:station:DISL:DISL:1,2010-07-01T04:00:00Z,30.2513,-88.0778,9.68,3.86,37.83,-9999.0,'1111122,1111122,1111122' 
DISL,ioos:station:DISL:DISL:1,2010-07-01T04:30:00Z,30.2513,-88.0778,9.68,4.66,40.19,-9999.0,'1111122,1111122,1111122' 
DISL,ioos:station:DISL:DISL:1,2010-07-01T05:00:00Z,30.2513,-88.0778,9.68,6.27,58.18,-9999.0,'1111122,1111122,1111122' 
DISL,ioos:station:DISL:DISL:1,2010-07-01T05:30:00Z,30.2513,-88.0778,9.68,6.4,60.55,-9999.0,'1111122,1111122,1111122' 
DISL,ioos:station:DISL:DISL:1,2010-07-01T06:00:00Z,30.2513,-88.0778,9.68,6.64,58.1,-9999.0,'1111122,1111122,1111122' 
DISL,ioos:station:DISL:DISL:1,2010-07-01T06:30:00Z,30.2513,-88.0778,9.68,5.86,65.57,-9999.0,'1111122,1111122,1111122' 
DISL,ioos:station:DISL:DISL:1,2010-07-01T07:00:00Z,30.2513,-88.0778,9.68,5.53,67.88,-9999.0,'1111122,1111122,1111122' 
DISL,ioos:station:DISL:DISL:1,2010-07-01T07:30:00Z,30.2513,-88.0778,9.68,4.28,69.82,-9999.0,'1111122,1111122,1111122' 
DISL,ioos:station:DISL:DISL:1,2010-07-01T08:00:00Z,30.2513,-88.0778,9.68,4.0,70.3,-9999.0,'1111122,1111122,1111122' 
DISL,ioos:station:DISL:DISL:1,2010-07-01T08:30:00Z,30.2513,-88.0778,9.68,3.9,71.1,-9999.0,'1111122,1111122,1111122' 
DISL,ioos:station:DISL:DISL:1,2010-07-01T09:00:00Z,30.2513,-88.0778,9.68,4.31,58.33,-9999.0,'1111122,1111122,1111122' 
DISL,ioos:station:DISL:DISL:1,2010-07-01T09:30:00Z,30.2513,-88.0778,9.68,4.84,57.96,-9999.0,'1111122,1111122,1111122' 
DISL,ioos:station:DISL:DISL:1,2010-07-01T10:00:00Z,30.2513,-88.0778,9.68,5.12,44.34,-9999.0,'1111122,1111122,1111122' 
DISL,ioos:station:DISL:DISL:1,2010-07-01T10:30:00Z,30.2513,-88.0778,9.68,4.68,48.9,-9999.0,'1111122,1111122,1111122' 
DISL,ioos:station:DISL:DISL:1,2010-07-01T11:00:00Z,30.2513,-88.0778,9.68,4.61,60.47,-9999.0,'1111122,1111122,1111122' 
DISL,ioos:station:DISL:DISL:1,2010-07-01T11:30:00Z,30.2513,-88.0778,9.68,5.36,33.05,-9999.0,'1111122,1111122,1111122' 
DISL,ioos:station:DISL:DISL:1,2010-07-01T12:00:00Z,30.2513,-88.0778,9.68,4.13,79.9,-9999.0,'1111122,1111122,1111122' 
DISL,ioos:station:DISL:DISL:1,2010-07-01T12:30:00Z,30.2513,-88.0778,9.68,5.29,68.25,-9999.0,'1111122,1111122,1111122' 
DISL,ioos:station:DISL:DISL:1,2010-07-01T13:00:00Z,30.2513,-88.0778,9.68,4.57,69.39,-9999.0,'1111122,1111122,1111122' 
DISL,ioos:station:DISL:DISL:1,2010-07-01T13:30:00Z,30.2513,-88.0778,9.68,4.13,203.7,-9999.0,'1111122,1111122,1111122' 
DISL,ioos:station:DISL:DISL:1,2010-07-01T14:00:00Z,30.2513,-88.0778,9.68,3.93,172.5,-9999.0,'1111122,1111122,1111122' 
DISL,ioos:station:DISL:DISL:1,2010-07-01T14:30:00Z,30.2513,-88.0778,9.68,2.81,166.2,-9999.0,'1111122,1111122,1111122' 
DISL,ioos:station:DISL:DISL:1,2010-07-01T15:00:00Z,30.2513,-88.0778,9.68,1.64,223.3,-9999.0,'1111122,1111122,1111122' 
DISL,ioos:station:DISL:DISL:1,2010-07-01T15:30:00Z,30.2513,-88.0778,9.68,1.94,224.9,-9999.0,'1111122,1111122,1111122' 
DISL,ioos:station:DISL:DISL:1,2010-07-01T16:00:00Z,30.2513,-88.0778,9.68,1.56,223.1,-9999.0,'1111122,1111122,1111122' 
DISL,ioos:station:DISL:DISL:1,2010-07-01T16:30:00Z,30.2513,-88.0778,9.68,1.82,236.9,-9999.0,'1111122,1111122,1111122' 
DISL,ioos:station:DISL:DISL:1,2010-07-01T17:00:00Z,30.2513,-88.0778,9.68,2.54,339.0,-9999.0,'1111122,1111122,1111122' 
DISL,ioos:station:DISL:DISL:1,2010-07-01T17:30:00Z,30.2513,-88.0778,9.68,2.27,325.9,-9999.0,'1111122,1111122,1111122' 
DISL,ioos:station:DISL:DISL:1,2010-07-01T18:00:00Z,30.2513,-88.0778,9.68,2.61,338.0,-9999.0,'1111122,1111122,1111122' 
DISL,ioos:station:DISL:DISL:1,2010-07-01T18:30:00Z,30.2513,-88.0778,9.68,2.76,325.2,-9999.0,'1111122,1111122,1111122' 
DISL,ioos:station:DISL:DISL:1,2010-07-01T19:00:00Z,30.2513,-88.0778,9.68,2.62,317.1,-9999.0,'1111122,1111122,1111122' 
DISL,ioos:station:DISL:DISL:1,2010-07-01T19:30:00Z,30.2513,-88.0778,9.68,1.46,339.0,-9999.0,'1111122,1111122,1111122' 
DISL,ioos:station:DISL:DISL:1,2010-07-01T20:00:00Z,30.2513,-88.0778,9.68,1.43,343.8,-9999.0,'1111122,1111122,1111122' 
DISL,ioos:station:DISL:DISL:1,2010-07-01T20:30:00Z,30.2513,-88.0778,9.68,0.82,297.2,-9999.0,'1111122,1111122,1111122' 
DISL,ioos:station:DISL:DISL:1,2010-07-01T21:00:00Z,30.2513,-88.0778,9.68,0.39,41.52,-9999.0,'1111122,1111122,1111122' 
DISL,ioos:station:DISL:DISL:1,2010-07-01T21:30:00Z,30.2513,-88.0778,9.68,1.21,59.83,-9999.0,'1111122,1111122,1111122' 
DISL,ioos:station:DISL:DISL:1,2010-07-01T22:00:00Z,30.2513,-88.0778,9.68,0.2,27.34,-9999.0,'1111122,1111122,1111122' 
DISL,ioos:station:DISL:DISL:1,2010-07-01T22:30:00Z,30.2513,-88.0778,9.68,1.03,107.9,-9999.0,'1111122,1111122,1111122' 
DISL,ioos:station:DISL:DISL:1,2010-07-01T23:00:00Z,30.2513,-88.0778,9.68,0.9,89.4,-9999.0,'1111122,1111122,1111122' 
DISL,ioos:station:DISL:DISL:1,2010-07-01T23:30:00Z,30.2513,-88.0778,9.68,1.27,44.47,-9999.0,'1111122,1111122,1111122' 
DISL,ioos:station:DISL:DISL:1,2010-07-02T00:00:00Z,30.2513,-88.0778,9.68,0.31,215.9,-9999.0,'1111122,1111122,1111122' 
DISL,ioos:station:DISL:DISL:1,2010-07-02T00:30:00Z,30.2513,-88.0778,9.68,0.16,267.4,-9999.0,'1111122,1111122,1111122' 
DISL,ioos:station:DISL:DISL:1,2010-07-02T01:00:00Z,30.2513,-88.0778,9.68,0.19,287.4,-9999.0,'1111122,1111122,1111122' 
DISL,ioos:station:DISL:DISL:1,2010-07-02T01:30:00Z,30.2513,-88.0778,9.68,0.87,253.6,-9999.0,'1111122,1111122,1111122' 
DISL,ioos:station:DISL:DISL:1,2010-07-02T02:00:00Z,30.2513,-88.0778,9.68,1.3,279.0,-9999.0,'1111122,1111122,1111122' 
DISL,ioos:station:DISL:DISL:1,2010-07-02T02:30:00Z,30.2513,-88.0778,9.68,2.7,307.1,-9999.0,'1111122,1111122,1111122' 
DISL,ioos:station:DISL:DISL:1,2010-07-02T03:00:00Z,30.2513,-88.0778,9.68,1.48,318.4,-9999.0,'1111122,1111122,1111122' 
DISL,ioos:station:DISL:DISL:1,2010-07-02T03:30:00Z,30.2513,-88.0778,9.68,1.05,323.0,-9999.0,'1111122,1111122,1111122' 
DISL,ioos:station:DISL:DISL:1,2010-07-02T04:00:00Z,30.2513,-88.0778,9.68,0.78,185.1,-9999.0,'1111122,1111122,1111122' 
DISL,ioos:station:DISL:DISL:1,2010-07-02T04:30:00Z,30.2513,-88.0778,9.68,0.28,20.71,-9999.0,'1111122,1111122,1111122' 
DISL,ioos:station:DISL:DISL:1,2010-07-02T05:00:00Z,30.2513,-88.0778,9.68,0.84,290.9,-9999.0,'1111122,1111122,1111122' 
DISL,ioos:station:DISL:DISL:1,2010-07-02T05:30:00Z,30.2513,-88.0778,9.68,2.13,339.1,-9999.0,'1111122,1111122,1111122' 
DISL,ioos:station:DISL:DISL:1,2010-07-02T06:00:00Z,30.2513,-88.0778,9.68,3.0,334.0,-9999.0,'1111122,1111122,1111122' 
DISL,ioos:station:DISL:DISL:1,2010-07-02T06:30:00Z,30.2513,-88.0778,9.68,3.47,338.8,-9999.0,'1111122,1111122,1111122' 
DISL,ioos:station:DISL:DISL:1,2010-07-02T07:00:00Z,30.2513,-88.0778,9.68,3.43,359.9,-9999.0,'1111122,1111122,1111122' 
DISL,ioos:station:DISL:DISL:1,2010-07-02T07:30:00Z,30.2513,-88.0778,9.68,2.49,343.2,-9999.0,'1111122,1111122,1111122' 
DISL,ioos:station:DISL:DISL:1,2010-07-02T08:00:00Z,30.2513,-88.0778,9.68,0.43,284.7,-9999.0,'1111122,1111122,1111122' 
DISL,ioos:station:DISL:DISL:1,2010-07-02T08:30:00Z,30.2513,-88.0778,9.68,1.43,291.0,-9999.0,'1111122,1111122,1111122' 
DISL,ioos:station:DISL:DISL:1,2010-07-02T09:00:00Z,30.2513,-88.0778,9.68,3.37,357.7,-9999.0,'1111122,1111122,1111122' 
DISL,ioos:station:DISL:DISL:1,2010-07-02T09:30:00Z,30.2513,-88.0778,9.68,4.08,6.76,-9999.0,'1111122,1111122,1111122' 
DISL,ioos:station:DISL:DISL:1,2010-07-02T10:00:00Z,30.2513,-88.0778,9.68,3.79,4.016,-9999.0,'1111122,1111122,1111122' 
DISL,ioos:station:DISL:DISL:1,2010-07-02T10:30:00Z,30.2513,-88.0778,9.68,2.77,2.485,-9999.0,'1111122,1111122,1111122' 
DISL,ioos:station:DISL:DISL:1,2010-07-02T11:00:00Z,30.2513,-88.0778,9.68,2.64,347.8,-9999.0,'1111122,1111122,1111122' 
DISL,ioos:station:DISL:DISL:1,2010-07-02T11:30:00Z,30.2513,-88.0778,9.68,1.65,21.44,-9999.0,'1111122,1111122,1111122' 
DISL,ioos:station:DISL:DISL:1,2010-07-02T12:00:00Z,30.2513,-88.0778,9.68,3.06,9.58,-9999.0,'1111122,1111122,1111122' 
DISL,ioos:station:DISL:DISL:1,2010-07-02T12:30:00Z,30.2513,-88.0778,9.68,5.31,356.8,-9999.0,'1111122,1111122,1111122' 
DISL,ioos:station:DISL:DISL:1,2010-07-02T13:00:00Z,30.2513,-88.0778,9.68,4.89,35.79,-9999.0,'1111122,1111122,1111122' 
DISL,ioos:station:DISL:DISL:1,2010-07-02T13:30:00Z,30.2513,-88.0778,9.68,4.41,19.54,-9999.0,'1111122,1111122,1111122' 
DISL,ioos:station:DISL:DISL:1,2010-07-02T14:00:00Z,30.2513,-88.0778,9.68,4.47,17.13,-9999.0,'1111122,1111122,1111122' 
DISL,ioos:station:DISL:DISL:1,2010-07-02T14:30:00Z,30.2513,-88.0778,9.68,3.27,15.19,-9999.0,'1111122,1111122,1111122' 
DISL,ioos:station:DISL:DISL:1,2010-07-02T15:00:00Z,30.2513,-88.0778,9.68,3.06,26.22,-9999.0,'1111122,1111122,1111122' 
DISL,ioos:station:DISL:DISL:1,2010-07-02T15:30:00Z,30.2513,-88.0778,9.68,2.96,26.67,-9999.0,'1111122,1111122,1111122' 
DISL,ioos:station:DISL:DISL:1,2010-07-02T16:00:00Z,30.2513,-88.0778,9.68,2.73,8.06,-9999.0,'1111122,1111122,1111122' 
DISL,ioos:station:DISL:DISL:1,2010-07-02T16:30:00Z,30.2513,-88.0778,9.68,2.65,8.72,-9999.0,'1111122,1111122,1111122' 
DISL,ioos:station:DISL:DISL:1,2010-07-02T17:00:00Z,30.2513,-88.0778,9.68,2.96,31.3,-9999.0,'1111122,1111122,1111122' 
DISL,ioos:station:DISL:DISL:1,2010-07-02T17:30:00Z,30.2513,-88.0778,9.68,1.86,82.5,-9999.0,'1111122,1111122,1111122' 
DISL,ioos:station:DISL:DISL:1,2010-07-02T18:00:00Z,30.2513,-88.0778,9.68,3.01,106.7,-9999.0,'1111122,1111122,1111122' 
DISL,ioos:station:DISL:DISL:1,2010-07-02T18:30:00Z,30.2513,-88.0778,9.68,3.61,113.8,-9999.0,'1111122,1111122,1111122' 
DISL,ioos:station:DISL:DISL:1,2010-07-02T19:00:00Z,30.2513,-88.0778,9.68,3.68,92.8,-9999.0,'1111122,1111122,1111122' 
DISL,ioos:station:DISL:DISL:1,2010-07-02T19:30:00Z,30.2513,-88.0778,9.68,2.52,103.3,-9999.0,'1111122,1111122,1111122' 
DISL,ioos:station:DISL:DISL:1,2010-07-02T20:00:00Z,30.2513,-88.0778,9.68,2.9,128.3,-9999.0,'1111122,1111122,1111122' 
DISL,ioos:station:DISL:DISL:1,2010-07-02T20:30:00Z,30.2513,-88.0778,9.68,3.05,123.0,-9999.0,'1111122,1111122,1111122' 
DISL,ioos:station:DISL:DISL:1,2010-07-02T21:00:00Z,30.2513,-88.0778,9.68,2.86,142.7,-9999.0,'1111122,1111122,1111122' 
DISL,ioos:station:DISL:DISL:1,2010-07-02T21:30:00Z,30.2513,-88.0778,9.68,3.3,149.2,-9999.0,'1111122,1111122,1111122' 
DISL,ioos:station:DISL:DISL:1,2010-07-02T22:00:00Z,30.2513,-88.0778,9.68,3.34,142.7,-9999.0,'1111122,1111122,1111122' 
DISL,ioos:station:DISL:DISL:1,2010-07-02T22:30:00Z,30.2513,-88.0778,9.68,2.73,172.6,-9999.0,'1111122,1111122,1111122' 
DISL,ioos:station:DISL:DISL:1,2010-07-02T23:00:00Z,30.2513,-88.0778,9.68,2.06,181.5,-9999.0,'1111122,1111122,1111122' 
DISL,ioos:station:DISL:DISL:1,2010-07-02T23:30:00Z,30.2513,-88.0778,9.68,1.99,201.8,-9999.0,'1111122,1111122,1111122' 
DISL,ioos:station:DISL:DISL:1,2010-07-03T00:00:00Z,30.2513,-88.0778,9.68,2.08,174.1,-9999.0,'1111122,1111122,1111122' 
DISL,ioos:station:DISL:DISL:1,2010-07-03T00:30:00Z,30.2513,-88.0778,9.68,1.57,159.9,-9999.0,'1111122,1111122,1111122' 
DISL,ioos:station:DISL:DISL:1,2010-07-03T01:00:00Z,30.2513,-88.0778,9.68,1.38,148.2,-9999.0,'1111122,1111122,1111122' 
DISL,ioos:station:DISL:DISL:1,2010-07-03T01:30:00Z,30.2513,-88.0778,9.68,1.61,148.3,-9999.0,'1111122,1111122,1111122' 
DISL,ioos:station:DISL:DISL:1,2010-07-03T02:00:00Z,30.2513,-88.0778,9.68,0.86,179.3,-9999.0,'1111122,1111122,1111122' 
DISL,ioos:station:DISL:DISL:1,2010-07-03T02:30:00Z,30.2513,-88.0778,9.68,0.82,188.6,-9999.0,'1111122,1111122,1111122' 
DISL,ioos:station:DISL:DISL:1,2010-07-03T03:00:00Z,30.2513,-88.0778,9.68,0.81,223.5,-9999.0,'1111122,1111122,1111122' 
DISL,ioos:station:DISL:DISL:1,2010-07-03T03:30:00Z,30.2513,-88.0778,9.68,1.01,279.6,-9999.0,'1111122,1111122,1111122' 
DISL,ioos:station:DISL:DISL:1,2010-07-03T04:00:00Z,30.2513,-88.0778,9.68,1.15,300.0,-9999.0,'1111122,1111122,1111122' 
DISL,ioos:station:DISL:DISL:1,2010-07-03T04:30:00Z,30.2513,-88.0778,9.68,7.45,58.47,-9999.0,'1111122,1111122,1111122' 
DISL,ioos:station:DISL:DISL:1,2010-07-03T05:00:00Z,30.2513,-88.0778,9.68,4.78,28.69,-9999.0,'1111122,1111122,1111122' 
DISL,ioos:station:DISL:DISL:1,2010-07-03T05:30:00Z,30.2513,-88.0778,9.68,5.46,51.89,-9999.0,'1111122,1111122,1111122' 
DISL,ioos:station:DISL:DISL:1,2010-07-03T06:00:00Z,30.2513,-88.0778,9.68,6.36,68.3,-9999.0,'1111122,1111122,1111122' 
DISL,ioos:station:DISL:DISL:1,2010-07-03T06:30:00Z,30.2513,-88.0778,9.68,7.29,77.2,-9999.0,'1111122,1111122,1111122' 
DISL,ioos:station:DISL:DISL:1,2010-07-03T07:00:00Z,30.2513,-88.0778,9.68,9.3,80.5,-9999.0,'1111122,1111122,1111122' 
DISL,ioos:station:DISL:DISL:1,2010-07-03T07:30:00Z,30.2513,-88.0778,9.68,8.16,61.67,-9999.0,'1111122,1111122,1111122' 
DISL,ioos:station:DISL:DISL:1,2010-07-03T08:00:00Z,30.2513,-88.0778,9.68,7.93,69.25,-9999.0,'1111122,1111122,1111122' 
DISL,ioos:station:DISL:DISL:1,2010-07-03T08:30:00Z,30.2513,-88.0778,9.68,7.63,71.3,-9999.0,'1111122,1111122,1111122' 
DISL,ioos:station:DISL:DISL:1,2010-07-03T09:00:00Z,30.2513,-88.0778,9.68,7.44,62.49,-9999.0,'1111122,1111122,1111122' 
DISL,ioos:station:DISL:DISL:1,2010-07-03T09:30:00Z,30.2513,-88.0778,9.68,8.41,58.4,-9999.0,'1111122,1111122,1111122' 
DISL,ioos:station:DISL:DISL:1,2010-07-03T10:00:00Z,30.2513,-88.0778,9.68,7.77,71.0,-9999.0,'1111122,1111122,1111122' 
DISL,ioos:station:DISL:DISL:1,2010-07-03T10:30:00Z,30.2513,-88.0778,9.68,7.6,67.19,-9999.0,'1111122,1111122,1111122' 
DISL,ioos:station:DISL:DISL:1,2010-07-03T11:00:00Z,30.2513,-88.0778,9.68,7.74,65.97,-9999.0,'1111122,1111122,1111122' 
DISL,ioos:station:DISL:DISL:1,2010-07-03T11:30:00Z,30.2513,-88.0778,9.68,7.77,65.5,-9999.0,'1111122,1111122,1111122' 
DISL,ioos:station:DISL:DISL:1,2010-07-03T12:00:00Z,30.2513,-88.0778,9.68,7.81,62.65,-9999.0,'1111122,1111122,1111122' 
DISL,ioos:station:DISL:DISL:1,2010-07-03T12:30:00Z,30.2513,-88.0778,9.68,8.49,61.59,-9999.0,'1111122,1111122,1111122' 
DISL,ioos:station:DISL:DISL:1,2010-07-03T13:00:00Z,30.2513,-88.0778,9.68,9.33,73.6,-9999.0,'1111122,1111122,1111122' 
DISL,ioos:station:DISL:DISL:1,2010-07-03T13:30:00Z,30.2513,-88.0778,9.68,8.52,67.45,-9999.0,'1111122,1111122,1111122' 
DISL,ioos:station:DISL:DISL:1,2010-07-03T14:00:00Z,30.2513,-88.0778,9.68,8.26,70.5,-9999.0,'1111122,1111122,1111122' 
DISL,ioos:station:DISL:DISL:1,2010-07-03T14:30:00Z,30.2513,-88.0778,9.68,8.26,73.4,-9999.0,'1111122,1111122,1111122' 
DISL,ioos:station:DISL:DISL:1,2010-07-03T15:00:00Z,30.2513,-88.0778,9.68,8.67,73.2,-9999.0,'1111122,1111122,1111122' 
DISL,ioos:station:DISL:DISL:1,2010-07-03T15:30:00Z,30.2513,-88.0778,9.68,8.54,77.6,-9999.0,'1111122,1111122,1111122' 
DISL,ioos:station:DISL:DISL:1,2010-07-03T16:00:00Z,30.2513,-88.0778,9.68,8.53,75.6,-9999.0,'1111122,1111122,1111122' 
DISL,ioos:station:DISL:DISL:1,2010-07-03T16:30:00Z,30.2513,-88.0778,9.68,8.27,74.4,-9999.0,'1111122,1111122,1111122' 
DISL,ioos:station:DISL:DISL:1,2010-07-03T17:00:00Z,30.2513,-88.0778,9.68,7.83,75.4,-9999.0,'1111122,1111122,1111122' 
DISL,ioos:station:DISL:DISL:1,2010-07-03T17:30:00Z,30.2513,-88.0778,9.68,7.4,77.3,-9999.0,'1111122,1111122,1111122' 
DISL,ioos:station:DISL:DISL:1,2010-07-03T18:00:00Z,30.2513,-88.0778,9.68,6.36,79.4,-9999.0,'1111122,1111122,1111122' 
DISL,ioos:station:DISL:DISL:1,2010-07-03T18:30:00Z,30.2513,-88.0778,9.68,6.32,84.6,-9999.0,'1111122,1111122,1111122' 
DISL,ioos:station:DISL:DISL:1,2010-07-03T19:00:00Z,30.2513,-88.0778,9.68,8.92,101.2,-9999.0,'1111122,1111122,1111122' 
DISL,ioos:station:DISL:DISL:1,2010-07-03T19:30:00Z,30.2513,-88.0778,9.68,7.67,102.1,-9999.0,'1111122,1111122,1111122' 
DISL,ioos:station:DISL:DISL:1,2010-07-03T20:00:00Z,30.2513,-88.0778,9.68,7.96,100.4,-9999.0,'1111122,1111122,1111122' 
DISL,ioos:station:DISL:DISL:1,2010-07-03T20:30:00Z,30.2513,-88.0778,9.68,8.24,102.1,-9999.0,'1111122,1111122,1111122' 
DISL,ioos:station:DISL:DISL:1,2010-07-03T21:00:00Z,30.2513,-88.0778,9.68,8.36,100.8,-9999.0,'1111122,1111122,1111122' 
DISL,ioos:station:DISL:DISL:1,2010-07-03T21:30:00Z,30.2513,-88.0778,9.68,8.3,98.8,-9999.0,'1111122,1111122,1111122' 
DISL,ioos:station:DISL:DISL:1,2010-07-03T22:00:00Z,30.2513,-88.0778,9.68,7.85,98.5,-9999.0,'1111122,1111122,1111122' 
DISL,ioos:station:DISL:DISL:1,2010-07-03T22:30:00Z,30.2513,-88.0778,9.68,6.93,106.6,-9999.0,'1111122,1111122,1111122' 
DISL,ioos:station:DISL:DISL:1,2010-07-03T23:00:00Z,30.2513,-88.0778,9.68,7.45,99.8,-9999.0,'1111122,1111122,1111122' 
DISL,ioos:station:DISL:DISL:1,2010-07-03T23:30:00Z,30.2513,-88.0778,9.68,7.1,101.8,-9999.0,'1111122,1111122,1111122' 
DISL,ioos:station:DISL:DISL:1,2010-07-04T00:00:00Z,30.2513,-88.0778,9.68,7.76,109.0,-9999.0,'1111122,1111122,1111122' 
DISL,ioos:station:DISL:DISL:1,2010-07-04T00:30:00Z,30.2513,-88.0778,9.68,7.47,104.4,-9999.0,'1111122,1111122,1111122' 
DISL,ioos:station:DISL:DISL:1,2010-07-04T01:00:00Z,30.2513,-88.0778,9.68,7.38,102.1,-9999.0,'1111122,1111122,1111122' 
DISL,ioos:station:DISL:DISL:1,2010-07-04T01:30:00Z,30.2513,-88.0778,9.68,6.96,101.7,-9999.0,'1111122,1111122,1111122' 
DISL,ioos:station:DISL:DISL:1,2010-07-04T02:00:00Z,30.2513,-88.0778,9.68,7.06,98.8,-9999.0,'1111122,1111122,1111122' 
DISL,ioos:station:DISL:DISL:1,2010-07-04T02:30:00Z,30.2513,-88.0778,9.68,6.32,103.7,-9999.0,'1111122,1111122,1111122' 
DISL,ioos:station:DISL:DISL:1,2010-07-04T03:00:00Z,30.2513,-88.0778,9.68,5.85,92.2,-9999.0,'1111122,1111122,1111122' 
DISL,ioos:station:DISL:DISL:1,2010-07-04T03:30:00Z,30.2513,-88.0778,9.68,6.64,87.7,-9999.0,'1111122,1111122,1111122' 
DISL,ioos:station:DISL:DISL:1,2010-07-04T04:00:00Z,30.2513,-88.0778,9.68,6.31,81.3,-9999.0,'1111122,1111122,1111122' 
DISL,ioos:station:DISL:DISL:1,2010-07-04T04:30:00Z,30.2513,-88.0778,9.68,7.2,60.25,-9999.0,'1111122,1111122,1111122' 
DISL,ioos:station:DISL:DISL:1,2010-07-04T05:00:00Z,30.2513,-88.0778,9.68,8.48,68.07,-9999.0,'1111122,1111122,1111122' 
DISL,ioos:station:DISL:DISL:1,2010-07-04T05:30:00Z,30.2513,-88.0778,9.68,8.14,68.62,-9999.0,'1111122,1111122,1111122' 
DISL,ioos:station:DISL:DISL:1,2010-07-04T06:00:00Z,30.2513,-88.0778,9.68,7.76,68.75,-9999.0,'1111122,1111122,1111122' 
DISL,ioos:station:DISL:DISL:1,2010-07-04T06:30:00Z,30.2513,-88.0778,9.68,7.46,75.7,-9999.0,'1111122,1111122,1111122' 
DISL,ioos:station:DISL:DISL:1,2010-07-04T07:00:00Z,30.2513,-88.0778,9.68,7.91,72.6,-9999.0,'1111122,1111122,1111122' 
DISL,ioos:station:DISL:DISL:1,2010-07-04T07:30:00Z,30.2513,-88.0778,9.68,7.33,76.0,-9999.0,'1111122,1111122,1111122' 
DISL,ioos:station:DISL:DISL:1,2010-07-04T08:00:00Z,30.2513,-88.0778,9.68,7.13,72.7,-9999.0,'1111122,1111122,1111122' 
DISL,ioos:station:DISL:DISL:1,2010-07-04T08:30:00Z,30.2513,-88.0778,9.68,6.76,68.42,-9999.0,'1111122,1111122,1111122' 
DISL,ioos:station:DISL:DISL:1,2010-07-04T09:00:00Z,30.2513,-88.0778,9.68,6.38,65.42,-9999.0,'1111122,1111122,1111122' 
DISL,ioos:station:DISL:DISL:1,2010-07-04T09:30:00Z,30.2513,-88.0778,9.68,7.37,69.85,-9999.0,'1111122,1111122,1111122' 
DISL,ioos:station:DISL:DISL:1,2010-07-04T10:00:00Z,30.2513,-88.0778,9.68,7.12,69.03,-9999.0,'1111122,1111122,1111122' 
DISL,ioos:station:DISL:DISL:1,2010-07-04T10:30:00Z,30.2513,-88.0778,9.68,8.24,75.9,-9999.0,'1111122,1111122,1111122' 
DISL,ioos:station:DISL:DISL:1,2010-07-04T11:00:00Z,30.2513,-88.0778,9.68,7.49,74.5,-9999.0,'1111122,1111122,1111122' 
DISL,ioos:station:DISL:DISL:1,2010-07-04T11:30:00Z,30.2513,-88.0778,9.68,6.88,73.1,-9999.0,'1111122,1111122,1111122' 
DISL,ioos:station:DISL:DISL:1,2010-07-04T12:00:00Z,30.2513,-88.0778,9.68,6.56,61.32,-9999.0,'1111122,1111122,1111122' 
DISL,ioos:station:DISL:DISL:1,2010-07-04T12:30:00Z,30.2513,-88.0778,9.68,7.54,71.6,-9999.0,'1111122,1111122,1111122' 
DISL,ioos:station:DISL:DISL:1,2010-07-04T13:00:00Z,30.2513,-88.0778,9.68,7.76,71.0,-9999.0,'1111122,1111122,1111122' 
DISL,ioos:station:DISL:DISL:1,2010-07-04T13:30:00Z,30.2513,-88.0778,9.68,7.82,71.9,-9999.0,'1111122,1111122,1111122' 
DISL,ioos:station:DISL:DISL:1,2010-07-04T14:00:00Z,30.2513,-88.0778,9.68,7.99,83.1,-9999.0,'1111122,1111122,1111122' 
DISL,ioos:station:DISL:DISL:1,2010-07-04T14:30:00Z,30.2513,-88.0778,9.68,6.89,73.0,-9999.0,'1111122,1111122,1111122' 
DISL,ioos:station:DISL:DISL:1,2010-07-04T15:00:00Z,30.2513,-88.0778,9.68,7.45,83.0,-9999.0,'1111122,1111122,1111122' 
DISL,ioos:station:DISL:DISL:1,2010-07-04T15:30:00Z,30.2513,-88.0778,9.68,7.56,80.6,-9999.0,'1111122,1111122,1111122' 
DISL,ioos:station:DISL:DISL:1,2010-07-04T16:00:00Z,30.2513,-88.0778,9.68,7.38,70.5,-9999.0,'1111122,1111122,1111122' 
DISL,ioos:station:DISL:DISL:1,2010-07-04T16:30:00Z,30.2513,-88.0778,9.68,8.09,70.2,-9999.0,'1111122,1111122,1111122' 
DISL,ioos:station:DISL:DISL:1,2010-07-04T17:00:00Z,30.2513,-88.0778,9.68,8.18,74.3,-9999.0,'1111122,1111122,1111122' 
DISL,ioos:station:DISL:DISL:1,2010-07-04T17:30:00Z,30.2513,-88.0778,9.68,7.08,69.62,-9999.0,'1111122,1111122,1111122' 
DISL,ioos:station:DISL:DISL:1,2010-07-04T18:00:00Z,30.2513,-88.0778,9.68,7.16,78.6,-9999.0,'1111122,1111122,1111122' 
DISL,ioos:station:DISL:DISL:1,2010-07-04T18:30:00Z,30.2513,-88.0778,9.68,6.67,74.5,-9999.0,'1111122,1111122,1111122' 
DISL,ioos:station:DISL:DISL:1,2010-07-04T19:00:00Z,30.2513,-88.0778,9.68,6.58,77.1,-9999.0,'1111122,1111122,1111122' 
DISL,ioos:station:DISL:DISL:1,2010-07-04T19:30:00Z,30.2513,-88.0778,9.68,5.72,72.6,-9999.0,'1111122,1111122,1111122' 
DISL,ioos:station:DISL:DISL:1,2010-07-04T20:00:00Z,30.2513,-88.0778,9.68,7.3,97.6,-9999.0,'1111122,1111122,1111122' 
DISL,ioos:station:DISL:DISL:1,2010-07-04T20:30:00Z,30.2513,-88.0778,9.68,8.15,102.9,-9999.0,'1111122,1111122,1111122' 
DISL,ioos:station:DISL:DISL:1,2010-07-04T21:00:00Z,30.2513,-88.0778,9.68,7.42,100.8,-9999.0,'1111122,1111122,1111122' 
DISL,ioos:station:DISL:DISL:1,2010-07-04T21:30:00Z,30.2513,-88.0778,9.68,6.76,104.5,-9999.0,'1111122,1111122,1111122' 
DISL,ioos:station:DISL:DISL:1,2010-07-04T22:00:00Z,30.2513,-88.0778,9.68,7.42,104.7,-9999.0,'1111122,1111122,1111122' 
DISL,ioos:station:DISL:DISL:1,2010-07-04T22:30:00Z,30.2513,-88.0778,9.68,8.47,105.4,-9999.0,'1111122,1111122,1111122' 
DISL,ioos:station:DISL:DISL:1,2010-07-04T23:00:00Z,30.2513,-88.0778,9.68,8.07,98.3,-9999.0,'1111122,1111122,1111122' 
DISL,ioos:station:DISL:DISL:1,2010-07-04T23:30:00Z,30.2513,-88.0778,9.68,8.88,101.4,-9999.0,'1111122,1111122,1111122' 
DISL,ioos:station:DISL:DISL:1,2010-07-05T00:00:00Z,30.2513,-88.0778,9.68,9.6,100.7,-9999.0,'1111122,1111122,1111122' 
DISL,ioos:station:DISL:DISL:1,2010-07-05T00:30:00Z,30.2513,-88.0778,9.68,8.92,96.0,-9999.0,'1111122,1111122,1111122' 
DISL,ioos:station:DISL:DISL:1,2010-07-05T01:00:00Z,30.2513,-88.0778,9.68,9.36,88.8,-9999.0,'1111122,1111122,1111122' 
DISL,ioos:station:DISL:DISL:1,2010-07-05T01:30:00Z,30.2513,-88.0778,9.68,8.5,88.8,-9999.0,'1111122,1111122,1111122' 
DISL,ioos:station:DISL:DISL:1,2010-07-05T02:00:00Z,30.2513,-88.0778,9.68,9.28,95.0,-9999.0,'1111122,1111122,1111122' 
DISL,ioos:station:DISL:DISL:1,2010-07-05T02:30:00Z,30.2513,-88.0778,9.68,10.03,95.6,-9999.0,'1111122,1111122,1111122' 
DISL,ioos:station:DISL:DISL:1,2010-07-05T03:00:00Z,30.2513,-88.0778,9.68,9.65,96.7,-9999.0,'1111122,1111122,1111122' 
DISL,ioos:station:DISL:DISL:1,2010-07-05T03:30:00Z,30.2513,-88.0778,9.68,9.81,99.6,-9999.0,'1111122,1111122,1111122' 
DISL,ioos:station:DISL:DISL:1,2010-07-05T04:00:00Z,30.2513,-88.0778,9.68,7.19,87.7,-9999.0,'1111122,1111122,1111122' 